Valley City, ND

2:56 PM CST on November 21, 2019 (GMT -0600)
Valley City

Weather History for KBAC - August, 2019

Change the Weather History Date:

Friday, August 16, 2019

  Actual Average (WUND) Record (WUND)
Temperature  
Mean Temperature 68 °F -  
Max Temperature 80 °F - - (-1)
Min Temperature 55 °F - - (-1)
Cooling Degree Days 2    
Growing Degree Days 18 (Base 50)    
Moisture  
Dew Point 61 °F    
Average Humidity 80    
Maximum Humidity 100    
Minimum Humidity 45    
Precipitation  
Precipitation 0.00 in - - ()
Sea Level Pressure  
Sea Level Pressure 29.81 in    
Wind  
Wind Speed 9 mph (WSW)    
Max Wind Speed 15 mph    
Max Gust Speed 21 mph    
Visibility 10 miles    
Events      
Averages and records for this station are not official NWS values.
T = Trace of Precipitation, MM = Missing Value Source: NWS Daily Summary

Daily Weather History Graph

Daily Weather History Graph

Search for Another Location

Airport or City:

Astronomy

Aug. 16, 2019 Rise Set
Actual Time 6:30 AM CDT 8:41 PM CDT
Civil Twilight 5:57 AM CDT 9:14 PM CDT
Nautical Twilight 5:15 AM CDT 9:55 PM CDT
Astronomical Twilight 4:29 AM CDT 10:41 PM CDT
Moon 9:38 PM CDT (8/16) 7:23 AM CDT (8/16)
Length of Visible Light 15h 17m
Length of Day
14h 10m
Full, 99% of the Moon is Illuminated
Aug 16
Full
Aug 23
Last Quarter
Aug 30
New
Sep 5
First Quarter
Sep 13
Full

Hourly Weather History & Observations

Time (CDT) Temp. Heat Index Dew Point Humidity Pressure Visibility Wind Dir Wind Speed Gust Speed Precip Events Conditions
12:35 AM 59.0 °F - 59.0 °F 100% 29.85 in 10.0 mi WSW 9.2 mph - N/A   Clear
12:55 AM 59.0 °F - 59.0 °F 100% 29.85 in 10.0 mi WSW 9.2 mph - N/A   Clear
1:15 AM 59.0 °F - 59.0 °F 100% 29.84 in 10.0 mi WSW 9.2 mph - N/A   Clear
1:35 AM 59.0 °F - 59.0 °F 100% 29.84 in 10.0 mi West 5.8 mph - N/A   Clear
1:55 AM 59.0 °F - 59.0 °F 100% 29.84 in 10.0 mi West 6.9 mph - N/A   Clear
2:15 AM 57.2 °F - 57.2 °F 100% 29.83 in 10.0 mi West 6.9 mph - N/A   Clear
2:35 AM 57.2 °F - 57.2 °F 100% 29.83 in 10.0 mi WSW 9.2 mph - N/A   Clear
2:55 AM 59.0 °F - 59.0 °F 100% 29.82 in 10.0 mi West 10.4 mph - N/A   Clear
3:15 AM 59.0 °F - 59.0 °F 100% 29.83 in 10.0 mi West 9.2 mph - N/A   Clear
3:35 AM 59.0 °F - 59.0 °F 100% 29.83 in 10.0 mi West 10.4 mph - N/A   Clear
3:55 AM 57.2 °F - 57.2 °F 100% 29.83 in 10.0 mi West 8.1 mph - N/A   Clear
4:15 AM 57.2 °F - 57.2 °F 100% 29.83 in 10.0 mi West 10.4 mph - N/A   Clear
4:35 AM 57.2 °F - 57.2 °F 100% 29.83 in 10.0 mi West 11.5 mph - N/A   Clear
4:55 AM 57.2 °F - 57.2 °F 100% 29.82 in 10.0 mi West 12.7 mph - N/A   Clear
5:15 AM 57.2 °F - 57.2 °F 100% 29.83 in 10.0 mi West 11.5 mph - N/A   Clear
5:35 AM 59.0 °F - 59.0 °F 100% 29.83 in 10.0 mi West 11.5 mph - N/A   Clear
5:55 AM 57.2 °F - 57.2 °F 100% 29.83 in 10.0 mi West 11.5 mph - N/A   Clear
6:15 AM 57.2 °F - 57.2 °F 100% 29.82 in 10.0 mi WNW 10.4 mph - N/A   Clear
6:35 AM 55.4 °F - 55.4 °F 100% 29.82 in 9.0 mi NNW 4.6 mph - N/A   Clear
6:55 AM 55.4 °F - 55.4 °F 100% 29.83 in 10.0 mi West 5.8 mph - N/A   Clear
7:15 AM - - - N/A% 29.83 in 10.0 mi West 9.2 mph - N/A   Clear
7:35 AM 59.0 °F - 59.0 °F 100% 29.84 in 10.0 mi West 6.9 mph - N/A   Clear
7:55 AM 60.8 °F - 60.8 °F 100% 29.84 in 10.0 mi West 8.1 mph - N/A   Clear
8:15 AM 60.8 °F - 60.8 °F 100% 29.84 in 10.0 mi WSW 8.1 mph - N/A   Clear
8:35 AM 60.8 °F - 60.8 °F 100% 29.84 in 10.0 mi WSW 10.4 mph - N/A   Clear
8:55 AM 62.6 °F - 62.6 °F 100% 29.85 in 10.0 mi WSW 4.6 mph - N/A   Clear
9:15 AM 64.4 °F - 64.4 °F 100% 29.84 in 10.0 mi West 9.2 mph - N/A   Clear
9:35 AM 66.2 °F - 62.6 °F 88% 29.84 in 10.0 mi West 9.2 mph - N/A   Clear
9:55 AM 68.0 °F - 62.6 °F 83% 29.83 in 10.0 mi West 8.1 mph - N/A   Clear
10:15 AM 69.8 °F - 62.6 °F 78% 29.84 in 10.0 mi West 6.9 mph - N/A   Clear
10:35 AM 69.8 °F - 62.6 °F 78% 29.84 in 10.0 mi WSW 6.9 mph - N/A   Clear
10:55 AM 69.8 °F - 62.6 °F 78% 29.85 in 10.0 mi WSW 8.1 mph - N/A   Clear
11:15 AM 71.6 °F - 62.6 °F 73% 29.85 in 10.0 mi WSW 6.9 mph - N/A   Clear
11:35 AM 73.4 °F - 62.6 °F 69% 29.85 in 10.0 mi SW 8.1 mph - N/A   Clear
11:55 AM 73.4 °F - 62.6 °F 69% 29.85 in 10.0 mi WSW 5.8 mph 12.7 mph N/A   Clear
12:15 PM 75.2 °F - 62.6 °F 65% 29.85 in 10.0 mi WSW 9.2 mph - N/A   Clear
12:35 PM 75.2 °F - 60.8 °F 61% 29.84 in 10.0 mi SW 8.1 mph - N/A   Clear
12:55 PM 77.0 °F - 60.8 °F 57% 29.83 in 10.0 mi WSW 10.4 mph - N/A   Clear
1:15 PM 78.8 °F - 59.0 °F 51% 29.82 in 10.0 mi WSW 12.7 mph 18.4 mph N/A   Clear
1:35 PM 78.8 °F - 60.8 °F 54% 29.82 in 10.0 mi West 11.5 mph - N/A   Clear
1:55 PM 78.8 °F - 59.0 °F 51% 29.81 in 10.0 mi SW 11.5 mph - N/A   Clear
2:15 PM 78.8 °F - 59.0 °F 51% 29.81 in 10.0 mi SW 13.8 mph - N/A   Clear
2:35 PM 80.6 °F 81.5 °F 60.8 °F 51% 29.81 in 10.0 mi WSW 10.4 mph - N/A   Clear
2:55 PM 80.6 °F 81.5 °F 60.8 °F 51% 29.80 in 10.0 mi WSW 12.7 mph - N/A   Clear
3:15 PM 80.6 °F 81.5 °F 60.8 °F 51% 29.80 in 10.0 mi WSW 13.8 mph - N/A   Clear
3:35 PM 80.6 °F 81.1 °F 59.0 °F 48% 29.80 in 10.0 mi SW 12.7 mph - N/A   Clear
3:55 PM 80.6 °F 80.8 °F 57.2 °F 45% 29.79 in 10.0 mi SW 15.0 mph - N/A   Partly Cloudy
4:15 PM 80.6 °F 81.1 °F 59.0 °F 48% 29.79 in 10.0 mi WSW 11.5 mph 20.7 mph N/A   Clear
4:35 PM 80.6 °F 81.1 °F 59.0 °F 48% 29.79 in 10.0 mi SW 12.7 mph - N/A   Clear
4:55 PM 80.6 °F 81.1 °F 59.0 °F 48% 29.78 in 10.0 mi WSW 13.8 mph - N/A   Partly Cloudy
5:15 PM 80.6 °F 81.1 °F 59.0 °F 48% 29.78 in 10.0 mi SW 11.5 mph - N/A   Clear
5:35 PM 80.6 °F 80.8 °F 57.2 °F 45% 29.78 in 10.0 mi SW 11.5 mph - N/A   Clear
5:55 PM 80.6 °F 80.8 °F 57.2 °F 45% 29.78 in 10.0 mi SW 11.5 mph - N/A   Clear
6:15 PM 80.6 °F 81.1 °F 59.0 °F 48% 29.77 in 10.0 mi SW 10.4 mph - N/A   Clear
6:35 PM 78.8 °F - 60.8 °F 54% 29.77 in 10.0 mi SW 9.2 mph - N/A   Clear
6:55 PM 78.8 °F - 60.8 °F 54% 29.77 in 10.0 mi SW 8.1 mph - N/A   Clear
7:15 PM 77.0 °F - 62.6 °F 61% 29.77 in 10.0 mi SW 6.9 mph - N/A   Clear
7:35 PM 75.2 °F - 62.6 °F 65% 29.77 in 10.0 mi SSW 8.1 mph - N/A   Clear
7:55 PM 73.4 °F - 64.4 °F 73% 29.77 in 10.0 mi SSW 6.9 mph - N/A   Clear
8:15 PM 69.8 °F - 66.2 °F 88% 29.77 in 10.0 mi SSW 6.9 mph - N/A   Clear
8:35 PM 68.0 °F - 64.4 °F 88% 29.77 in 10.0 mi SSW 6.9 mph - N/A   Clear
8:55 PM 68.0 °F - 62.6 °F 83% 29.77 in 10.0 mi SSW 8.1 mph - N/A   Clear
9:15 PM 66.2 °F - 64.4 °F 94% 29.77 in 10.0 mi South 5.8 mph - N/A   Clear
9:35 PM 64.4 °F - 64.4 °F 100% 29.77 in 10.0 mi South 8.1 mph - N/A   Clear
9:55 PM 64.4 °F - 64.4 °F 100% 29.77 in 10.0 mi South 6.9 mph - N/A   Clear
10:15 PM 64.4 °F - 64.4 °F 100% 29.77 in 10.0 mi SSW 9.2 mph - N/A   Clear
10:35 PM 66.2 °F - 64.4 °F 94% 29.77 in 10.0 mi SSW 10.4 mph - N/A   Clear
10:55 PM 64.4 °F - 64.4 °F 100% 29.77 in 10.0 mi SSW 10.4 mph - N/A   Clear
11:15 PM 64.4 °F - 64.4 °F 100% 29.77 in 10.0 mi SSW 10.4 mph - N/A   Clear
11:35 PM 66.2 °F - 64.4 °F 94% 29.77 in 10.0 mi SSW 10.4 mph - N/A   Clear
11:55 PM 64.4 °F - 64.4 °F 100% 29.78 in 10.0 mi SSW 10.4 mph - N/A   Clear